Voltar ao catálogo

STARLINK-34846

AtivoComunicaçõesVLEO
NORAD 66972·PAYLOAD·🇺🇸 United States

Lançado Dec 8, 2025 de Cape Canaveral Space Force Station

Loading…

Próximas Passagens (próximas 24 horas)

TLE

AtualizadoSource: CelesTrak SupGP

Época: Sep 14, 2026, 23:12 UTC

1 66972C 25288P   26257.96715278  .00015375  00000+0  55682-3 0  2578
2 66972  43.0021  34.3538 0001553 276.9632 196.5662 15.27574586    13

Acompanhe STARLINK-34846 em tempo real com AllMySat

Download on the App Store